Regional Weather Roundup
Issued by NWS

Home | Current Version | Previous Version | Graphics & Text | Print | Product List | Glossary On
Versions: 1 2 3 4 5 6 7 8 9 10 11 12 13 14 15 16 17 18 19 20 21 22 23 24 25 26 27 28 29 30 31 32 33 34 35 36 37 38 39 40 41 42 43 44 45 46 47 48 49 50
000
ASUS43 KLMK 240202
RWRKY
KENTUCKY REGIONAL WEATHER ROUNDUP
NATIONAL WEATHER SERVICE LOUISVILLE KY
1000 PM EDT SAT JUL 23 2016

NOTE "FAIR" INDICATES FEW OR NO CLOUDS BELOW 12,000 FEET
WITH NO SIGNIFICANT WEATHER AND/OR OBSTRUCTIONS TO VISIBILITY.

KYZ001>023-026-027-061>063-070>075-240300-
WESTERN AND SOUTH CENTRAL KENTUCKY

CITY           SKY/WX    TMP DP  RH WIND       PRES   REMARKS
PADUCAH        CLEAR     82  75  79 S3        29.94R
HENDERSON      CLEAR     82  75  78 SE3       29.95R
OWENSBORO      CLEAR     85  79  82 CALM      29.96R HX  98
HOPKINSVILLE   CLOUDY    76  76 100 N1        29.98R
BOWLING GREEN  CLEAR     85  74  69 CALM      29.97R HX  92
GLASGOW        NOT AVBL
$$

KYZ024-025-028>034-038-045-046-053-240300-
NORTH CENTRAL KENTUCKY

CITY           SKY/WX    TMP DP  RH WIND       PRES   REMARKS
LOUISVILLE/SDF MOCLDY    88  73  61 S6        29.96R HX  95
LOUISVILLE/LOU CLEAR     88  73  61 SE3       29.97R HX  95
FORT KNOX      CLEAR     79  76  90 S2        29.97R
$$

KYZ035>037-039>044-047>052-055>060-089>105-240300-
NORTHEAST KENTUCKY

CITY           SKY/WX    TMP DP  RH WIND       PRES   REMARKS
LEXINGTON      CLOUDY    85  72  65 CALM      30.00R HX  91
COVINGTON      PTCLDY    85  73  67 N5        30.00R HX  91
FRANKFORT      CLEAR     81  72  74 CALM      29.98R
$$

KYZ054-064>069-076>088-106>120-240300-
SOUTHEAST KENTUCKY

CITY           SKY/WX    TMP DP  RH WIND       PRES   REMARKS
JACKSON        CLEAR     82  70  66 CALM      30.02R
LONDON         CLEAR     82  69  64 CALM      30.01R
SOMERSET       CLEAR     79  70  73 SW5       30.02R
MIDDLESBORO    CLEAR     74  73  96 CALM      30.03R
MONTICELLO     CLEAR    N/A N/A N/A NW8       30.03R
$$





USA.gov is the U.S. government's official web portal to all federal, state and local government web resources and services.